Regional Weather Roundup
Issued by NWS Cleveland, OH

Home | Current Version | Previous Version | Text Only | Print | Product List | Glossary Off
Versions: 1 2 3 4 5 6 7 8 9 10 11 12 13 14 15 16 17 18 19 20 21 22 23 24 25 26 27 28 29 30 31 32 33 34 35 36 37 38 39 40 41 42 43 44 45 46 47 48 49 50

000
ASUS41 KCLE 290700
RWRCLE
OHIO REGIONAL WEATHER ROUNDUP
NATIONAL WEATHER SERVICE WILMINGTON, OH
300 AM EDT SAT AUG 29 2015

NOTE: "FAIR" INDICATES FEW OR NO CLOUDS BELOW 12,000 FEET WITH NO
SIGNIFICANT WEATHER AND/OR OBSTRUCTIONS TO VISIBILITY.

OHZ001>008-015>018-024>027-034-035-043-044-290800-
   NORTHWEST OHIO

CITY           SKY/WX    TMP DP  RH WIND       PRES   REMARKS
DEFIANCE       MOCLDY    64  59  83 CALM      30.13F
FINDLAY        CLOUDY    63  59  87 SE5       30.13F
TOLEDO EXPRESS CLOUDY    63  59  87 SE5       30.13F
TOLEDO EXEC    CLOUDY    65  58  78 CALM      30.16S
LIMA           CLOUDY    63  57  81 SE6       30.14F
$$

OHZ009>014-019>023-028>033-038-089-290800-
   NORTHEAST OHIO

CITY           SKY/WX    TMP DP  RH WIND       PRES   REMARKS
CLE-HOPKINS    MOCLDY    61  55  81 CALM      30.17F
CLE-LAKEFRONT  CLEAR     64  56  75 SE6       30.14F
CUY CO. ARPT   NOT AVBL
LORAIN-ELYRIA  PTCLDY    57  55  93 CALM      30.16F
ASHTABULA      CLEAR     54  53  97 CALM      30.17F
AKRON-CANTON   PTCLDY    59  56  89 E3        30.17F
WOOSTER        NOT AVBL
MANSFIELD      PTCLDY    56  55  97 S5        30.16F
YOUNGSTOWN     PTCLDY    52  52 100 SE5       30.17F FOG
$$

OHZ042-051>053-060>062-070>072-077>081-290800-
  SOUTHWEST OHIO

CITY           SKY/WX    TMP DP  RH WIND       PRES   REMARKS
CINC-COVINGTON CLEAR     67  58  72 SE3       30.11F
CINC-LUNKEN    CLEAR     60  59  96 CALM      30.12F FOG
HAMILTON       PTCLDY    59  58  96 CALM      30.13F
DAYTON         NOT AVBL
WRIGHT-PAT AFB PTCLDY    61  58  90 NE1       30.13F
DAYTON GENERAL PTCLDY    67  56  67 SE8       30.12F
WILMINGTON     CLEAR     60  56  86 SE3       30.14F
$$

OHZ036-037-039>041-045>050-054>059-063>069-073>076-082>088-290800-
  CENTRAL AND SOUTHEAST OHIO

CITY           SKY/WX    TMP DP  RH WIND       PRES   REMARKS
COLUMBUS       PTCLDY    60  56  86 CALM      30.14F
OSU AIRPORT    PTCLDY    59  57  93 E3        30.14F
BOLTON FIELD   NOT AVBL
RICKENBACK AFB NOT AVBL
NEWARK         FOG       55  54  96 CALM      30.15F VSB 1
MARION         PTCLDY    59  56  89 CALM      30.15F
LANCASTER      CLEAR     54  52  93 CALM      30.15F FOG
ZANESVILLE     CLEAR     56  52  86 SE3       30.15F
NEW PHILLY     CLEAR     53  52  96 CALM      30.17F FOG
$$



USA.gov is the U.S. government's official web portal to all federal, state and local government web resources and services.